Terminal Aerodrome Forecast
Issued by NWS Rapid City, SD

Home | Current Version | Previous Version | Text Only | Print | Product List | Glossary On
Versions: 1 2 3 4 5 6 7 8 9 10 11 12 13 14 15 16 17 18 19 20 21 22 23 24 25 26 27 28 29 30 31 32 33 34 35 36 37 38 39 40
478
FTUS43 KUNR 171938 AAM
TAFRAP
TAF AMD
KRAP 171938Z 1720/1818 15012KT P6SM SCT040
      TEMPO 1719/1722 BKN025=

USA.gov is the U.S. government's official web portal to all federal, state and local government web resources and services.